Temp
19 20 20 21 21 21 22 22 23 23 24 24 25 25 26 26 27 28 28 29 29 29 30 29 30 30 30 30 31 32 25 26 28 26 29 30 29 31 31 31 31 30 27 26 25
20 20 20 21 21 22 22 22 23 23 24 24 25 25 25 26 27 27 29 29 29 29 30 30 30 31 31 32 32 31 28 29 30 31 30 29 29 30 30 30 29 27 27 25 25
19 20 20 21 21 22 22 23 23 24 24 24 25 25 26 26 27 29 29 29 29 29 30 30 30 31 31 32 33 32 30 31 33 34 31 28 29 31 29 28 30 27 26 25 25
19 20 20 21 22 22 23 23 23 24 24 25 25 26 26 27 27 29 29 29 29 30 29 30 30 31 30 29 33 31 32 35 35 35 30 28 28 28 29 28 31 29 26 25 25
19 20 20 21 22 22 23 23 24 24 24 25 25 26 26 26 28 29 29 29 29 29 29 30 30 31 29 32 33 32 32 33 35 36 33 30 28 29 27 31 29 28 27 26 26
19 20 20 21 22 22 23 23 24 24 25 25 26 26 26 26 29 29 29 29 29 29 30 30 31 32 32 33 31 34 35 35 34 34 36 33 32 31 28 34 31 28 28 27 26
19 19 20 21 22 22 23 23 24 25 25 25 25 26 26 28 30 29 29 29 30 30 30 31 32 32 32 30 33 34 32 30 33 32 33 34 32 30 30 32 33 30 28 28 27
18 19 20 21 21 22 23 24 24 25 25 25 25 25 26 29 30 30 29 29 30 30 31 31 31 31 31 32 32 31 29 28 30 33 33 32 29 27 31 33 32 31 29 29 26
18 19 20 21 21 22 23 24 25 25 25 25 25 24 25 29 29 30 30 30 31 31 31 31 31 31 31 28 27 29 26 28 30 32 31 31 29 28 31 32 31 30 29 26 24
18 19 20 20 21 22 24 25 26 26 25 25 25 24 28 29 30 30 30 30 31 31 31 31 31 27 26 26 25 29 28 29 29 31 31 30 31 30 31 30 29 30 29 26 25
17 18 19 20 21 22 24 25 26 25 24 25 27 28 29 30 30 30 30 31 31 31 27 31 27 25 26 28 30 31 29 28 29 32 31 29 31 30 32 30 30 28 30 25 26
17 18 19 20 21 22 23 23 23 23 24 25 26 28 29 30 30 30 30 30 30 27 29 27 26 29 31 31 31 31 29 28 30 33 31 28 31 32 31 33 32 29 25 24 22
16 17 18 20 21 22 22 23 23 24 24 26 28 28 29 30 30 30 31 31 30 28 28 27 29 33 33 31 31 31 29 28 29 31 32 30 30 30 31 25 28 30 27 25 26
16 17 18 20 21 21 23 23 24 24 20 26 28 29 30 31 30 31 31 31 30 28 29 29 31 32 32 32 32 29 31 33 32 30 28 32 26 28 22 22 23 29 23 22 22
15 16 17 18 20 21 21 23 23 24 20 30 30 31 31 31 31 31 31 31 29 29 30 28 30 30 31 32 32 29 31 31 32 29 30 29 26 24 20 19 21 27 24 24 24
15 16 17 17 19 21 21 22 23 21 21 29 31 31 29 31 31 31 31 31 32 30 30 29 33 32 31 32 32 32 32 29 30 27 24 27 26 25 22 18 22 26 26 26 25
15 16 17 17 19 20 20 21 19 20 28 29 29 29 28 29 29 30 30 28 26 27 26 28 30 31 33 31 30 31 28 23 24 23 24 25 25 25 28 23 25 25 27 26 26
16 16 17 18 19 19 20 19 19 25 26 29 30 30 29 29 29 30 29 27 28 27 26 25 25 30 32 29 28 28 27 22 25 25 25 27 27 27 30 28 28 28 27 26 25
16 17 18 20 19 19 19 17 20 24 28 29 29 28 29 30 30 29 28 28 29 27 26 26 27 32 32 32 30 28 27 27 26 27 25 25 29 28 23 19 25 26 27 26 24
16 17 19 19 19 19 17 18 22 26 28 28 27 28 28 28 29 29 27 29 30 30 29 27 25 29 32 32 31 29 29 27 23 26 26 26 26 24 22 18 18 24 22 26 25
16 16 20 19 19 19 17 20 23 25 26 26 26 26 26 26 27 27 29 30 31 31 30 27 25 28 29 30 29 28 27 28 25 24 23 23 23 23 19 18 18 19 19 26 26
14 17 20 20 19 20 18 21 24 25 27 28 27 26 25 26 25 26 27 30 33 32 29 29 24 24 27 29 31 29 29 26 22 24 24 21 23 26 19 20 18 16 16 17 26
14 18 20 20 17 18 21 23 24 25 26 27 27 26 26 25 24 26 27 30 32 27 26 28 24 24 24 26 26 28 29 29 25 23 24 22 21 22 21 18 16 14 17 23 26
13 17 20 20 20 20 19 21 23 26 26 26 24 25 25 24 24 24 26 29 30 30 30 29 25 24 23 25 27 27 29 29 26 23 24 23 22 22 19 18 18 21 25 26 26
14 18 19 18 19 20 20 21 23 24 26 26 24 24 23 24 23 24 25 26 28 28 30 26 25 26 25 27 29 28 29 28 28 25 25 23 22 20 18 20 22 26 26 26 26
14 17 18 18 22 22 20 21 23 24 25 24 23 24 24 23 22 22 23 23 26 24 24 24 23 27 25 27 28 28 29 29 27 29 27 25 24 20 21 22 24 25 25 26 26
14 16 17 19 19 21 20 23 23 24 24 25 24 24 23 24 24 24 25 26 26 25 23 23 23 23 22 25 26 24 27 28 25 24 25 24 23 20 21 23 24 26 26 26 25
Height
1549 1548 1547 1546 1544 1543 1542 1540 1539 1537 1535 1533 1531 1529 1527 1525 1523 1522 1522 1523 1522 1522 1523 1522 1519 1518 1519 1518 1519 1518 1528 1536 1531 1533 1524 1509 1505 1504 1506 1505 1509 1509 1508 1518 1525
1549 1548 1547 1545 1544 1542 1541 1540 1538 1536 1535 1533 1530 1528 1526 1523 1522 1519 1520 1521 1521 1521 1522 1521 1519 1520 1520 1514 1514 1512 1517 1514 1506 1508 1510 1512 1508 1509 1510 1505 1511 1512 1514 1519 1525
1549 1547 1546 1545 1543 1542 1540 1538 1536 1535 1533 1532 1529 1527 1525 1522 1521 1516 1516 1519 1519 1520 1520 1520 1519 1519 1515 1511 1513 1510 1513 1498 1494 1492 1505 1508 1501 1499 1507 1509 1507 1512 1516 1520 1525
1548 1546 1545 1544 1542 1540 1539 1537 1535 1533 1532 1530 1528 1525 1523 1522 1522 1516 1516 1517 1517 1517 1518 1518 1518 1517 1512 1510 1505 1510 1503 1495 1493 1493 1503 1504 1501 1504 1511 1521 1516 1513 1518 1524 1526
1546 1545 1544 1542 1541 1539 1537 1536 1534 1532 1530 1528 1527 1524 1523 1521 1517 1516 1516 1515 1515 1515 1515 1516 1517 1515 1513 1506 1502 1504 1498 1498 1489 1489 1493 1499 1502 1508 1515 1508 1518 1521 1521 1524 1529
1545 1544 1542 1540 1539 1538 1536 1534 1532 1530 1529 1527 1525 1523 1522 1521 1516 1515 1515 1513 1514 1514 1514 1514 1514 1513 1510 1505 1502 1495 1492 1492 1491 1491 1490 1493 1499 1501 1502 1492 1504 1520 1518 1520 1528
1543 1542 1540 1539 1537 1536 1534 1532 1531 1529 1527 1526 1525 1523 1521 1515 1515 1514 1513 1512 1513 1512 1511 1513 1512 1511 1509 1506 1500 1497 1497 1494 1490 1490 1493 1493 1495 1496 1497 1493 1494 1512 1516 1517 1525
1541 1540 1538 1537 1535 1534 1532 1530 1528 1528 1526 1524 1523 1522 1516 1512 1513 1514 1514 1513 1512 1512 1511 1511 1509 1509 1510 1507 1502 1501 1504 1515 1498 1490 1488 1494 1510 1495 1493 1493 1496 1505 1512 1515 1517
1539 1538 1536 1534 1533 1531 1529 1527 1525 1525 1524 1522 1523 1521 1513 1510 1510 1509 1511 1510 1510 1510 1510 1509 1509 1509 1509 1513 1517 1508 1531 1520 1509 1501 1499 1499 1505 1491 1490 1492 1495 1502 1510 1509 1512
1536 1535 1533 1532 1531 1528 1526 1523 1522 1521 1521 1520 1520 1524 1510 1506 1506 1507 1507 1508 1508 1508 1509 1508 1508 1510 1511 1518 1542 1523 1520 1516 1519 1499 1494 1494 1493 1488 1486 1489 1493 1499 1499 1506 1509
1533 1532 1531 1530 1529 1527 1525 1522 1523 1522 1519 1517 1515 1510 1506 1505 1505 1506 1506 1507 1508 1509 1510 1504 1513 1523 1512 1505 1500 1499 1509 1517 1503 1487 1497 1495 1487 1481 1481 1484 1494 1497 1498 1507 1508
1532 1529 1529 1529 1527 1526 1525 1525 1526 1527 1518 1512 1508 1506 1503 1505 1503 1503 1505 1506 1506 1511 1505 1509 1517 1499 1495 1495 1496 1496 1510 1514 1497 1488 1496 1495 1489 1479 1480 1482 1486 1490 1500 1504 1509
1530 1528 1527 1525 1525 1525 1524 1524 1525 1525 1520 1503 1499 1499 1498 1501 1499 1498 1501 1501 1502 1506 1504 1512 1499 1489 1490 1492 1496 1497 1507 1509 1508 1488 1486 1493 1495 1487 1486 1487 1492 1496 1496 1502 1503
1528 1526 1524 1524 1526 1523 1524 1525 1526 1524 1527 1500 1490 1487 1494 1495 1494 1494 1494 1498 1499 1503 1499 1500 1488 1489 1488 1491 1490 1509 1488 1487 1489 1497 1519 1482 1534 1498 1503 1496 1489 1507 1503 1505 1508
1525 1524 1523 1522 1521 1522 1523 1522 1523 1524 1550 1482 1474 1480 1483 1489 1486 1488 1490 1493 1495 1496 1495 1501 1491 1490 1492 1490 1486 1499 1484 1487 1486 1498 1496 1500 1520 1520 1510 1518 1498 1503 1512 1506 1509
1523 1522 1521 1520 1520 1522 1522 1521 1523 1533 1539 1485 1474 1478 1482 1483 1485 1485 1488 1489 1490 1492 1489 1490 1482 1484 1484 1481 1480 1480 1484 1489 1488 1501 1536 1509 1515 1516 1511 1512 1506 1502 1508 1508 1512
1520 1519 1518 1518 1518 1519 1519 1521 1532 1537 1490 1485 1481 1476 1479 1483 1483 1482 1486 1491 1501 1508 1509 1494 1487 1480 1479 1486 1481 1483 1499 1541 1543 1543 1546 1508 1512 1502 1480 1489 1494 1503 1503 1507 1510
1517 1515 1514 1514 1516 1518 1519 1522 1537 1500 1494 1471 1474 1471 1478 1476 1479 1479 1484 1494 1487 1493 1506 1516 1520 1484 1474 1483 1493 1491 1499 1540 1546 1545 1534 1502 1521 1505 1478 1490 1495 1497 1500 1504 1507
1513 1511 1509 1509 1512 1517 1520 1529 1515 1499 1480 1481 1475 1479 1475 1470 1474 1477 1481 1486 1481 1483 1507 1506 1502 1473 1471 1471 1477 1491 1503 1486 1513 1505 1528 1515 1497 1492 1496 1503 1504 1504 1503 1507 1511
1510 1509 1505 1508 1510 1515 1519 1517 1501 1489 1484 1483 1490 1479 1480 1476 1477 1476 1481 1471 1474 1472 1474 1485 1508 1475 1468 1466 1469 1478 1477 1505 1513 1534 1535 1519 1510 1516 1508 1510 1504 1509 1519 1512 1515
1510 1508 1501 1506 1511 1514 1517 1508 1498 1489 1490 1489 1486 1487 1484 1485 1480 1481 1474 1465 1464 1466 1466 1475 1490 1483 1473 1476 1482 1483 1490 1486 1495 1509 1536 1542 1529 1492 1500 1502 1504 1504 1522 1516 1517
1510 1508 1504 1506 1511 1508 1508 1500 1495 1488 1486 1481 1483 1484 1487 1484 1486 1483 1478 1463 1459 1458 1469 1465 1481 1500 1486 1467 1465 1466 1477 1482 1517 1520 1511 1524 1521 1490 1499 1511 1522 1530 1546 1530 1523
1510 1507 1504 1505 1509 1505 1499 1495 1493 1488 1484 1483 1484 1483 1482 1486 1496 1481 1475 1466 1461 1461 1470 1467 1485 1506 1500 1483 1473 1477 1471 1472 1482 1493 1510 1529 1526 1498 1502 1512 1516 1526 1531 1523 1521
1512 1504 1501 1502 1498 1498 1500 1494 1489 1483 1481 1484 1486 1484 1484 1487 1483 1485 1478 1469 1466 1464 1464 1463 1478 1494 1513 1497 1479 1485 1479 1474 1486 1508 1502 1502 1507 1501 1505 1510 1512 1506 1502 1510 1511
1509 1501 1501 1497 1495 1494 1494 1490 1486 1483 1479 1483 1486 1488 1489 1493 1489 1487 1480 1476 1469 1468 1464 1467 1485 1478 1479 1473 1472 1476 1474 1471 1476 1487 1501 1498 1497 1496 1494 1488 1487 1488 1494 1501 1500
1509 1507 1499 1496 1489 1489 1488 1488 1486 1482 1480 1484 1489 1488 1486 1491 1490 1492 1484 1485 1481 1474 1474 1469 1487 1474 1484 1474 1474 1478 1468 1470 1474 1472 1475 1488 1491 1487 1488 1488 1488 1493 1498 1501 1503
1511 1507 1505 1496 1492 1490 1488 1485 1485 1484 1482 1482 1483 1485 1487 1486 1483 1482 1480 1479 1479 1480 1482 1480 1483 1487 1500 1479 1480 1494 1475 1469 1477 1473 1472 1490 1484 1481 1482 1483 1486 1490 1496 1501 1504
Wind_Speed
7 7 8 8 9 9 10 9 10 11 11 11 11 11 12 10 11 12 10 9 10 11 13 12 12 10 7 19 18 12 3 3 5 11 6 2 5 12 13 14 12 7 23 29 26
7 8 8 9 9 10 11 11 10 11 11 11 12 13 13 13 12 16 11 8 11 12 15 11 15 16 16 20 8 6 1 6 9 10 10 9 12 5 7 10 8 23 28 29 27
9 9 9 10 10 10 11 11 10 11 11 12 12 13 14 14 11 7 10 12 12 13 14 12 12 16 23 25 7 4 3 8 20 15 23 27 24 19 7 5 12 27 29 29 27
10 10 10 11 12 12 12 12 11 12 12 12 12 13 15 11 3 4 2 9 14 14 13 13 9 17 13 9 24 6 19 12 13 8 29 20 22 6 11 19 7 25 26 26 23
11 11 12 12 13 13 14 13 13 12 12 13 13 13 13 7 13 1 2 5 10 11 13 10 15 20 10 15 20 10 18 27 24 10 21 23 15 8 9 20 23 23 25 23 20
12 12 13 13 14 14 14 14 14 13 12 13 12 13 12 8 4 4 5 1 1 4 6 8 15 19 24 19 12 21 13 14 14 12 7 16 17 20 19 8 15 16 27 24 23
13 14 14 14 14 15 15 14 14 13 12 12 12 13 13 16 2 4 5 4 6 13 16 17 21 14 17 10 21 27 10 8 8 9 6 7 3 3 29 15 18 12 28 25 26
14 14 15 15 15 16 16 15 14 13 11 12 11 13 11 5 8 10 10 13 11 10 13 12 11 11 13 22 22 12 10 5 8 13 17 11 8 6 19 14 9 15 24 27 30
14 15 15 15 16 16 16 15 14 12 11 12 9 6 12 5 17 15 14 14 13 13 8 11 8 10 16 6 7 5 4 6 9 10 13 12 10 14 22 21 18 14 12 35 35
14 15 15 15 15 16 14 14 13 12 13 12 12 9 11 13 11 10 9 13 13 7 13 13 12 5 5 1 7 4 4 3 6 25 11 16 13 15 29 25 20 12 32 37 35
14 14 14 14 13 13 10 8 8 2 5 9 8 9 25 9 7 7 8 9 9 13 7 14 3 7 13 12 16 12 9 10 8 16 3 9 4 9 20 30 16 31 22 34 33
15 14 14 13 11 8 7 4 5 8 13 20 25 27 29 17 6 14 12 16 12 8 13 8 7 14 13 15 14 13 14 16 10 11 4 13 11 0 7 9 18 25 31 35 30
15 14 14 11 8 4 4 6 11 8 7 16 25 23 26 20 16 20 16 18 11 7 11 9 15 13 13 10 8 6 11 11 14 10 26 11 6 7 10 36 34 24 33 34 33
14 13 13 8 4 3 3 3 8 7 3 7 10 19 28 23 21 24 21 16 9 12 11 9 16 13 8 4 5 6 10 10 12 8 3 1 5 6 8 19 21 19 31 30 27
13 12 9 8 6 4 4 1 9 4 3 7 14 9 17 26 14 17 24 20 10 10 6 10 9 9 7 6 5 9 10 6 6 6 3 9 3 3 4 9 20 16 17 28 26
13 12 8 10 11 3 9 9 8 1 6 6 7 6 9 19 19 25 20 21 11 10 11 9 23 5 8 7 8 7 6 8 4 2 4 5 5 5 6 11 14 13 21 22 17
13 13 12 12 8 2 2 4 0 4 6 6 6 10 11 9 11 14 12 8 6 3 6 10 11 8 6 7 8 6 3 4 4 3 4 7 7 5 5 16 13 14 24 24 20
14 14 13 14 13 4 2 1 6 7 13 11 13 8 13 11 11 14 7 8 9 9 5 6 8 10 11 10 9 7 8 6 6 3 4 8 5 5 7 25 27 26 24 21 20
13 10 13 7 13 9 3 4 6 6 10 7 11 12 6 9 10 13 12 9 10 11 9 3 10 10 11 9 8 9 3 12 4 4 2 4 2 8 17 20 11 20 25 24 21
13 10 13 6 6 11 3 5 6 16 18 15 7 8 3 8 4 6 11 12 12 11 16 9 7 9 11 12 10 9 6 3 3 3 4 2 2 3 6 15 7 0 19 20 18
11 4 5 20 12 10 4 6 9 25 23 12 7 9 11 9 11 13 7 8 11 14 10 10 7 15 5 2 8 3 5 3 3 4 5 4 5 5 14 16 15 5 28 15 17
4 4 15 14 7 6 6 6 14 21 26 6 5 8 7 11 10 10 8 6 9 14 10 8 7 6 9 10 8 9 7 7 5 9 1 5 4 3 10 10 34 43 32 36 17
4 9 9 15 4 6 11 15 23 18 17 5 3 7 9 8 6 8 11 19 13 12 5 3 2 1 10 8 6 3 7 4 3 3 5 6 4 5 28 30 49 54 37 5 18
4 3 7 17 18 8 7 9 14 26 5 7 7 11 7 7 8 7 12 11 26 7 7 8 2 4 7 8 2 4 19 5 3 1 5 3 6 4 15 23 32 36 20 9 10
4 5 8 4 8 11 8 10 10 9 7 5 4 8 9 4 7 7 8 10 16 14 7 4 1 3 8 8 9 8 9 1 7 3 2 7 13 11 11 16 26 21 18 19 17
5 9 11 16 14 3 7 6 7 11 2 6 6 10 9 5 7 8 8 6 4 9 9 6 3 3 6 8 11 15 15 10 5 7 13 6 4 8 12 13 12 12 11 16 13
9 8 7 12 9 3 5 4 5 7 13 13 4 2 7 5 14 18 21 13 7 4 6 5 2 1 6 6 9 8 8 5 4 4 5 5 8 9 6 10 11 20 15 12 8
Wind_Direction
353 352 347 348 349 340 338 341 342 339 340 335 331 324 323 310 285 270 253 257 270 287 312 323 340 330 283 261 255 278 119 230 179 173 240 95 90 101 95 90 51 162 153 162 158
341 341 338 339 338 335 334 333 339 336 336 332 326 323 323 316 300 261 227 242 256 277 296 310 307 311 278 274 271 177 280 264 210 207 210 122 101 43 352 135 93 101 135 150 155
331 332 332 330 329 329 327 328 333 333 333 331 325 323 321 323 314 252 235 235 252 276 277 277 285 304 295 293 251 242 238 256 292 288 162 153 154 182 179 262 174 140 146 153 159
323 324 323 324 324 323 322 323 328 331 331 329 324 322 322 316 336 196 223 250 255 262 262 265 293 286 285 283 294 169 234 282 283 229 147 163 167 215 184 2 267 168 155 154 166
315 315 316 319 318 318 319 320 323 325 328 327 324 324 330 302 255 235 313 259 259 255 252 253 271 275 280 287 299 233 222 236 268 158 138 157 182 144 96 44 15 159 152 158 170
310 309 311 314 311 312 312 315 318 320 323 322 323 322 324 281 202 288 292 288 235 245 249 259 261 273 282 288 292 293 329 319 5 2 179 181 150 146 156 184 184 184 160 167 172
305 306 307 308 306 307 307 310 310 313 315 315 317 315 298 259 238 287 321 307 280 278 275 272 268 280 316 317 310 311 302 17 345 338 319 355 33 92 175 207 177 168 168 171 163
304 304 305 304 304 303 304 304 303 303 305 306 306 308 277 270 226 242 245 258 260 259 265 292 319 308 303 292 297 299 21 31 318 284 280 324 252 174 172 206 215 209 191 162 157
303 302 302 302 303 302 303 301 299 295 291 287 298 305 270 268 230 259 224 245 249 232 255 264 282 281 287 295 305 17 79 37 324 300 300 291 277 172 181 200 195 225 169 142 148
300 300 300 301 304 304 306 305 303 286 278 281 258 285 261 238 265 233 220 233 272 270 250 230 236 233 284 258 252 201 136 86 254 290 298 278 277 157 193 202 172 187 168 150 156
301 299 298 298 302 308 318 331 348 3 323 237 258 246 291 246 273 234 225 238 230 268 281 270 186 229 235 235 248 258 141 169 242 265 302 265 278 199 199 207 181 182 150 159 165
304 301 297 295 296 301 303 6 19 328 296 272 264 266 265 273 266 248 223 234 216 231 257 283 244 240 232 240 247 268 161 194 279 236 220 280 283 111 196 108 116 156 137 157 159
306 303 298 296 294 275 288 299 313 346 272 281 254 245 246 248 238 258 232 221 233 228 239 231 251 250 235 259 267 305 179 202 222 215 228 258 266 271 67 58 41 130 153 163 171
306 304 304 294 266 235 306 350 317 322 292 267 219 239 234 233 242 240 249 215 233 240 255 230 264 273 272 285 303 322 281 271 278 289 253 82 275 55 72 72 50 16 139 157 167
306 301 304 287 249 224 330 280 324 304 296 257 224 190 199 207 228 223 232 245 216 255 237 262 268 272 300 223 265 232 267 287 315 336 26 311 34 149 359 75 122 219 176 157 162
302 296 287 269 246 210 321 336 308 263 242 257 141 142 171 215 228 256 208 232 224 250 278 261 269 298 248 282 224 274 304 340 315 8 344 272 276 200 170 178 184 174 165 155 157
298 288 272 248 210 176 2 308 233 222 219 264 192 172 195 220 213 238 193 210 198 247 272 294 283 267 266 301 302 258 14 335 331 339 217 311 327 234 142 161 179 179 143 155 160
297 284 265 249 221 201 6 308 236 231 245 288 313 239 200 194 225 217 219 192 211 227 261 215 291 233 217 197 218 223 163 167 233 132 243 327 143 288 95 147 145 143 148 157 162
304 286 264 231 205 179 244 218 202 253 249 276 322 309 261 201 199 199 216 209 211 190 209 276 271 291 240 205 183 266 198 217 219 277 95 223 11 76 50 40 55 133 153 157 165
314 289 247 142 162 173 218 250 250 270 282 311 298 295 233 292 284 210 198 219 224 223 188 239 266 281 309 193 209 182 222 311 330 238 280 4 52 197 48 98 48 304 299 163 166
318 291 144 163 166 198 220 234 258 266 277 291 311 327 341 330 333 311 260 225 216 235 221 204 167 274 19 233 183 256 269 261 139 137 182 178 245 219 166 152 179 219 349 183 178
316 264 178 170 176 214 234 238 254 278 283 244 350 302 299 304 323 325 318 248 293 235 221 232 171 239 238 270 264 199 213 190 133 282 104 147 293 219 78 105 76 60 352 317 193
294 272 182 183 215 234 241 244 257 266 266 179 245 252 285 298 340 334 331 322 4 25 44 309 335 222 323 332 357 331 273 211 195 130 233 149 244 71 101 90 117 148 200 240 150
295 266 180 208 236 275 295 278 245 256 266 332 335 331 299 299 296 285 311 319 326 352 18 24 89 168 207 218 148 66 303 287 77 92 239 236 141 166 136 142 155 162 154 186 137
240 272 360 233 222 227 247 282 304 263 159 241 313 289 285 323 319 300 311 316 327 4 319 114 267 349 311 321 323 300 227 332 312 31 353 211 155 196 170 152 156 155 182 168 144
310 340 323 304 321 312 228 281 303 315 351 168 205 262 281 287 271 286 314 355 324 340 354 333 271 336 295 310 311 303 300 212 229 236 292 231 162 146 186 145 136 185 159 140 148
350 321 334 294 315 309 285 274 269 270 289 294 6 275 270 317 351 328 316 296 289 336 325 343 355 24 273 299 313 315 285 206 178 195 162 287 221 172 170 175 160 135 143 143 157